TimeCDT,TemperatureF,Dew PointF,Humidity,Sea Level PressureIn,VisibilityMPH,Wind Direction,Wind SpeedMPH,Gust SpeedMPH,PrecipitationIn,Events,Conditions,WindDirDegrees,DateUTC
12:53 AM,52.0,44.1,74,29.86,10.0,North,3.5,-,N/A,,Clear,360,2013-05-16 05:53:00
1:53 AM,54.0,44.1,69,29.86,10.0,Calm,Calm,-,N/A,,Clear,0,2013-05-16 06:53:00
2:53 AM,53.1,43.0,69,29.86,10.0,Calm,Calm,-,N/A,,Clear,0,2013-05-16 07:53:00
3:53 AM,50.0,43.0,77,29.88,10.0,Calm,Calm,-,N/A,,Clear,0,2013-05-16 08:53:00
4:53 AM,48.0,44.1,86,29.88,10.0,Calm,Calm,-,N/A,,Clear,0,2013-05-16 09:53:00
5:53 AM,48.9,44.1,83,29.89,10.0,Calm,Calm,-,N/A,,Partly Cloudy,0,2013-05-16 10:53:00
6:53 AM,54.0,46.9,77,29.91,10.0,Calm,Calm,-,N/A,,Partly Cloudy,0,2013-05-16 11:53:00
7:53 AM,63.0,51.1,65,29.92,10.0,North,3.5,-,N/A,,Clear,10,2013-05-16 12:53:00
8:53 AM,70.0,50.0,49,29.92,10.0,NNE,3.5,-,N/A,,Clear,30,2013-05-16 13:53:00
9:53 AM,73.9,48.9,41,29.92,10.0,NNE,4.6,-,N/A,,Clear,30,2013-05-16 14:53:00
10:53 AM,77.0,46.0,33,29.92,10.0,Calm,Calm,-,N/A,,Clear,0,2013-05-16 15:53:00
11:53 AM,79.0,48.0,34,29.91,10.0,Variable,3.5,-,N/A,,Clear,0,2013-05-16 16:53:00
12:53 PM,79.0,46.0,31,29.90,10.0,SSW,9.2,-,N/A,,Partly Cloudy,210,2013-05-16 17:53:00
1:53 PM,82.4,42.8,25,29.90,10.0,Variable,4.6,-,N/A,,Partly Cloudy,0,2013-05-16 18:53:00
2:53 PM,81.0,43.0,26,29.87,10.0,South,3.5,-,N/A,,Scattered Clouds,180,2013-05-16 19:53:00
3:53 PM,82.9,44.1,25,29.86,10.0,Variable,4.6,-,N/A,,Partly Cloudy,0,2013-05-16 20:53:00
4:53 PM,82.9,43.0,24,29.86,10.0,Calm,Calm,-,N/A,,Partly Cloudy,0,2013-05-16 21:53:00
5:53 PM,75.0,48.9,40,29.88,10.0,East,12.7,19.6,N/A,,Mostly Cloudy,90,2013-05-16 22:53:00
6:53 PM,71.1,46.0,41,29.90,10.0,East,16.1,23.0,N/A,,Partly Cloudy,100,2013-05-16 23:53:00
7:53 PM,66.9,43.0,42,29.91,10.0,East,10.4,-,N/A,,Partly Cloudy,90,2013-05-17 00:53:00
8:53 PM,64.0,37.9,38,29.95,10.0,East,10.4,-,N/A,,Mostly Cloudy,100,2013-05-17 01:53:00
9:53 PM,61.0,36.0,39,29.96,10.0,East,9.2,-,N/A,,Mostly Cloudy,100,2013-05-17 02:53:00
10:53 PM,59.0,39.9,49,29.96,10.0,East,5.8,-,N/A,,Clear,80,2013-05-17 03:53:00
11:53 PM,57.9,37.0,46,29.97,10.0,ENE,4.6,-,N/A,,Clear,70,2013-05-17 04:53:00